Weather in Sereda

Russia / Yaroslavl Oblast     58°00′05″N   40°26′23″E
temp.,
°C
wind,
m/s
gust,
m/s
humid.,
%
clouds,
%
prec.,
mm/h
press.,
hPa
HPBL,
m
9 march, tue
tue900:00−15n379480 0.0 1009182
03:00−19nnw379640 0.0 1011161
06:00−21n359847 0.0 1013104
09:00−20n359561 0.0 1015260
12:00−16nnw348999 0.0 1016417
15:00−15nnw3587100 0.1 1017635
18:00−17nnw3793100 0.1 1019327
21:00−20n389699 0.1 1021280
10 march, wed
wed1000:00−24n379547 0.0 1022173
03:00−27n379623 0.0 1024135
06:00−28n36960 0.0 1025117
09:00−24n36930 0.0 1027246
12:00−18n24820 0.0 1027427
15:00−14nw34780 0.0 1027594
18:00−17wnw34920 0.0 102780
21:00−21wnw36960 0.0 1028108
11 march, thu
thu1100:00−22nw239837 0.0 102947
03:00−22nw239719 0.0 103038
06:00−22wnw23970 0.0 103040
09:00−18nw35920 0.0 1030216
12:00−11wnw24860 0.0 1030348
15:00−9w348618 0.0 1029491
18:00−13w239361 0.0 102936
21:00−17wsw239630 0.0 102926
12 march, fri
fri1200:00−19wsw23940 0.0 102934
03:00−20sw34950 0.0 102875
06:00−21sw35900 0.0 102898
09:00−17ssw49830 0.0 1027280
12:00−12ssw48780 0.0 1026386
15:00−9ssw510780 0.0 1025562
18:00−11s411860 0.0 1024354
21:00−13s414870 0.0 1024400
13 march, sat
sat1300:00−15s413860 0.0 1023370
03:00−15s514880 0.0 1022427
06:00−13s5148568 0.0 1020552
09:00−11s6138483 0.0 1019691
12:00−8s71190100 0.1 1018857
15:00−6s71191100 0.6 1017950
18:00−6s51194100 0.8 1015797
21:00−7s41195100 1.2 1015506